Blue Canyon, CA

2:30 AM PDT on August 18, 2017 (GMT -0700)
Blue Canyon-Nyack

Weather History for KBLU - May, 2013

Change the Weather History Date:

Wednesday, May 22, 2013

  Actual Average Record
Temperature  
Mean Temperature 42 °F -  
Max Temperature 51 °F 66 °F 82 °F (1967)
Min Temperature 33 °F 47 °F 27 °F (1960)
Degree Days  
Heating Degree Days 24    
Moisture  
Dew Point 25 °F    
Average Humidity 56    
Maximum Humidity 100    
Minimum Humidity 28    
Precipitation  
Precipitation 0.00 in - - ()
Sea Level Pressure  
Sea Level Pressure 29.85 in    
Wind  
Wind Speed 4 mph (SSW)    
Max Wind Speed 8 mph    
Max Gust Speed -    
Visibility 9 miles    
Events      
Averages and records for this station are not official NWS values.
T = Trace of Precipitation, MM = Missing Value Source: NWS Daily Summary

Daily Weather History Graph

Daily Weather History Graph

Search for Another Location

Airport or City:

Trip Planner

Search our weather history database for the weather conditions in past years. The results will help you decide how hot, cold, wet, or windy it might be!

Date:

Astronomy

May. 22, 2013 Rise Set
Actual Time 5:43 AM PDT 8:15 PM PDT
Civil Twilight 5:12 AM PDT 8:46 PM PDT
Nautical Twilight 4:34 AM PDT 9:25 PM PDT
Astronomical Twilight 3:51 AM PDT 10:08 PM PDT
Moon 5:45 PM PDT (5/22) 3:49 AM PDT (5/22)
Length of Visible Light 15h 34m
Length of Day
14h 32m
Waxing Gibbous, 92% of the Moon is Illuminated
May 22
Waxing Gibbous
May 24
Full
May 31
Last Quarter
Jun 8
New
Jun 16
First Quarter

Hourly Weather History & Observations

Time (PDT) Temp. Windchill Dew Point Humidity Pressure Visibility Wind Dir Wind Speed Gust Speed Precip Events Conditions
12:52 AM 41.0 °F 37.1 °F 37.9 °F 89% 29.84 in 10.0 mi South 5.8 mph - N/A   Clear
1:52 AM 39.0 °F 36.8 °F 37.0 °F 93% 29.83 in 10.0 mi SSE 3.5 mph - N/A   Clear
2:17 AM 39.2 °F - 37.4 °F 93% 29.94 in 10.0 mi Calm Calm - N/A   Partly Cloudy
2:52 AM 37.9 °F 35.5 °F 36.0 °F 93% 29.82 in 9.0 mi SE 3.5 mph - N/A   Partly Cloudy
3:20 AM 37.4 °F 34.9 °F 37.4 °F 100% 29.93 in 2.5 mi SE 3.5 mph - N/A   Mostly Cloudy
3:26 AM 37.4 °F 34.9 °F 37.4 °F 100% 29.93 in 1.2 mi SE 3.5 mph - N/A   Mostly Cloudy
3:35 AM 37.4 °F 34.9 °F 35.6 °F 93% 29.92 in 2.0 mi SE 3.5 mph - N/A   Mostly Cloudy
3:52 AM 37.0 °F 34.5 °F 36.0 °F 96% 29.81 in 10.0 mi SSE 3.5 mph - N/A   Partly Cloudy
4:52 AM 36.0 °F - 33.1 °F 89% 29.81 in 10.0 mi Calm Calm - N/A   Clear
5:52 AM 33.1 °F 28.7 °F 30.0 °F 89% 29.81 in 10.0 mi ESE 4.6 mph - N/A   Clear
6:52 AM 39.0 °F - 21.9 °F 50% 29.80 in 10.0 mi Calm Calm - N/A   Clear
7:52 AM 41.0 °F 38.0 °F 24.1 °F 51% 29.80 in 10.0 mi South 4.6 mph - N/A   Clear
8:52 AM 43.0 °F 40.3 °F 14.0 °F 31% 29.82 in 10.0 mi SSE 4.6 mph - N/A   Clear
9:52 AM 44.1 °F - 15.1 °F 31% 29.83 in 10.0 mi Calm Calm - N/A   Clear
10:52 AM 46.0 °F 43.1 °F 26.1 °F 46% 29.83 in 10.0 mi Variable 5.8 mph - N/A   Clear
11:52 AM 48.0 °F - 21.9 °F 36% 29.84 in 10.0 mi West 6.9 mph - N/A   Clear
12:52 PM 48.0 °F - 26.1 °F 42% 29.85 in 10.0 mi West 8.1 mph - N/A   Clear
1:52 PM 48.9 °F - 25.0 °F 39% 29.86 in 10.0 mi West 8.1 mph - N/A   Clear
2:52 PM 48.0 °F - 21.0 °F 34% 29.87 in 10.0 mi Variable 5.8 mph - N/A   Clear
3:52 PM 48.9 °F - 19.0 °F 31% 29.86 in 10.0 mi Variable 4.6 mph - N/A   Clear
4:52 PM 50.0 °F - 19.9 °F 31% 29.86 in 10.0 mi SW 6.9 mph - N/A   Clear
5:52 PM 48.9 °F - 17.1 °F 28% 29.87 in 10.0 mi West 8.1 mph - N/A   Clear
6:52 PM 46.9 °F - 17.1 °F 30% 29.86 in 10.0 mi WSW 8.1 mph - N/A   Clear
7:52 PM 45.0 °F 43.5 °F 16.0 °F 31% 29.86 in 10.0 mi West 3.5 mph - N/A   Clear
8:52 PM 43.0 °F 41.3 °F 14.0 °F 31% 29.86 in 10.0 mi WNW 3.5 mph - N/A   Clear
9:52 PM 42.1 °F 40.2 °F 12.9 °F 31% 29.86 in 10.0 mi NNW 3.5 mph - N/A   Clear
10:52 PM 41.0 °F - 12.0 °F 31% 29.84 in 10.0 mi Calm Calm - N/A   Clear
11:52 PM 39.9 °F - 12.9 °F 33% 29.84 in 10.0 mi Calm Calm - N/A   Clear